Regional Weather Roundup
Issued by NWS

Home | Current Version | Previous Version | Graphics & Text | Print | Product List | Glossary On
Versions: 1 2 3 4 5 6 7 8 9 10 11 12 13 14 15 16 17 18 19 20 21 22 23 24 25 26 27 28 29 30 31 32 33 34 35 36 37 38 39 40 41 42 43 44 45 46 47 48 49 50
000
ASUS45 KTFX 290710
RWRMT
MONTANA REGIONAL WEATHER ROUNDUP
NATIONAL WEATHER SERVICE GREAT FALLS MT
100 AM MDT WED JUL 29 2015

NOTE: "FAIR" INDICATES FEW OR NO CLOUDS BELOW 12000 FEET WITH NO
SIGNIFICANT WEATHER AND/OR OBSTRUCTIONS TO VISIBILITY.

MTZ001>007-043-290800-
WEST OF THE DIVIDE

CITY           SKY/WX    TMP DP  RH WIND       PRES   REMARKS
KALISPELL      SUNNY     50  42  74 CALM      30.21S
MISSOULA       CLEAR     54  44  69 S6        30.27R
BUTTE          CLEAR     43  36  76 SE6       30.34R
MULLAN PASS    CLEAR     53  33  46 SW6       30.35S
DEER LODGE       N/A     46  39  76 W3        30.34S
EUREKA           N/A     61  45  55 E7        30.20R
HAMILTON         N/A     50  41  71 SW3       30.28R
LIBBY            N/A     50  43  76 CALM      30.22S
PLAINS           N/A     54  42  63 CALM      30.22S
RONAN            N/A     57  48  72 CALM      30.26S
$$

MTZ008-052>055-290800-
SOUTHWEST MONTANA

CITY           SKY/WX    TMP DP  RH WIND       PRES   REMARKS
BOZEMAN        PTCLDY    46  41  82 S6        30.29R
DILLON         CLEAR     45  39  79 SW6       30.32R
W YELLOWSTONE  CLEAR     32  32 100 CALM      30.41R
TWIN BRIDGES     N/A     47  38  71 S1        30.27R
$$

MTZ009-010-012-014-046-048-049-054-290800-
EAST SLOPES AND CENTRAL MONTANA

CITY           SKY/WX    TMP DP  RH WIND       PRES   REMARKS
CUT BANK       CLEAR     51  41  68 W14       30.17R
GREAT FALLS    CLEAR     51  40  65 SW9       30.19R
MALMSTROM AFB  CLEAR     52  41  66 SW7       30.19R
HELENA         CLEAR     61  36  39 SW7       30.23S
CONRAD           N/A     49  45  86 MISG      30.18R
$$

MTZ011-013-016-021-045-047-050-051-290800-
NORTH CENTRAL MONTANA

CITY           SKY/WX    TMP DP  RH WIND       PRES   REMARKS
HAVRE          MOCLDY    56  47  71 W7        30.09R
LEWISTOWN      PTCLDY    54  39  57 NW6       30.20R
CHINOOK          N/A     55  48  76 W6        30.08R
FORT BENTON      N/A     57  41  54 SW6       30.15S
$$

MTZ017>020-022>027-061-062-290800-
NORTHEAST MONTANA

CITY           SKY/WX    TMP DP  RH WIND       PRES   REMARKS
GLASGOW        PTCLDY    57  49  74 W9        30.01R
JORDAN           N/A     54  46  74 NW6       30.08R
SIDNEY         PTCLDY    59  48  67 SW8       29.97R
WOLF POINT     MOCLDY    58  50  75 W12       29.99R
POPLAR           N/A     57  52  82 W12       29.97S
SCOBEY           N/A     55  48  77 W8        29.94S
$$

MTZ028>42-056>058-290800-
SOUTHCENTRAL AND SOUTHEAST MONTANA

CITY           SKY/WX    TMP DP  RH WIND       PRES   REMARKS
BAKER          CLEAR     57  39  51 W9        30.08S
BILLINGS       CLEAR     59  37  44 SW9       30.21R
LIVINGSTON     CLEAR     59  35  40 W20       30.26R
MILES CITY     PTCLDY    61  41  47 W13       30.09R
FORSYTH          N/A     64  39  39 SW6       30.11S
LAUREL           N/A     53  34  48 SW3       30.19R
ROUNDUP          N/A     55  39  54 SW3       30.09R
$$

REGIONAL REPORTS...DAKOTAS

CITY           SKY/WX    TMP DP  RH WIND       PRES   REMARKS
WILLISTON      MOCLDY    61  51  70 W15       29.90R
MINOT          LGT RAIN  64  49  57 W31G46    29.74R
DICKINSON      PTCLDY    57  45  64 W16       29.97R
BEACH          FAIR      55  45  67 W14G20    30.03S
CROSBY         CLOUDY    59  55  88 W21       29.84R
BISMARCK       CLEAR     61  49  64 W16G26    29.90R
GRAND FORKS    CLOUDY    64  54  69 W22G35    29.56R
FARGO          CLOUDY    66  50  56 W26G32    29.73S
BUFFALO SD       N/A     56  36  47 W15       30.05S
RAPID CITY     CLEAR     52  44  74 S7        30.20R
$$

REGIONAL REPORTS...WYOMING/IDAHO/WASHINGTON

CITY           SKY/WX    TMP DP  RH WIND       PRES   REMARKS
GILLETTE       CLEAR     51  35  54 W9        30.25R
SHERIDAN       CLEAR     57  34  41 W10       30.24S
BUFFALO WY     CLEAR     54  34  46 W7        30.29S
CODY           CLEAR     55  32  41 SW6       30.31S
YELLOWSTONE LA   N/A     31  28  89 NW3       30.47S
IDAHO FALLS    CLEAR     47  40  76 N3        30.32S
SALMON         CLEAR     48  43  81 CALM      30.29R
BOISE          CLEAR     63  37  38 S7        30.20S
SPOKANE        PTCLDY    64  37  36 SW5       30.19S
$$

REGIONAL REPORTS...ALBERTA

CITY           SKY/WX    TMP DP  RH WIND       PRES   REMARKS
EDMONTON       CLEAR     59  46  63 W8        29.99R
CALGARY        MOCLDY    63  43  48 W5        30.12R
LETHBRIDGE     MOCLDY    50  45  81 SW8       30.12R
MEDICINE HAT   PTCLDY    55  48  76 SW7       30.05R
WATERTON GATE    N/A     57  41  54 SW15G26     N/A
MILK RIVER       N/A     52  43  71 W12         N/A
ONEFOUR          N/A     55  45  67 NW14        N/A
$$

REGIONAL REPORTS...SASKATCHEWAN

CITY           SKY/WX    TMP DP  RH WIND       PRES   REMARKS
SWIFT CURRENT  CLEAR     55  48  76 W13       29.98R
REGINA         CLOUDY    59  54  82 W16G24    29.81R
SASKATOON      MOCLDY    59  54  82 NW10      29.84R
CYPRESS HILLS    N/A     54  41  62 W3          N/A
VAL MARIE        N/A     52  46  82 W9          N/A
ROCKGLEN         N/A     55  48  76 W13G18      N/A
ASSINIBOIA       N/A     54  48  82 W6          N/A
$$


USA.gov is the U.S. government's official web portal to all federal, state and local government web resources and services.